Lexington Weather

Lexington, Massachusetts, USA

32°F
12/8/2019 4:29pm 
  • Lexington Conditions: Mostly cloudy
  • Temperature: 32.4°F / 0.2°CColder 1.0°F than last hour.
  • Dew Point: 18.5°FIncreased 1.3°Fsince last hour.
  • Relative Humidity: 56%Increased 5.0% since last hour.
  • Wind: Wind from SW SW 1 mph, 10-min avg: 2 mph, gust: 5 mph
  • Barometer: 30.40 in Steady
  • Visibility: 10 miles
  • Snow Today: 0.0 in
  •   

Regional Weather Roundup
for Boston / Norton, MA

        
000
ASUS41 KBOX 080600
RWRBOX

REGIONAL WEATHER ROUNDUP
NATIONAL WEATHER SERVICE BOSTON/NORTON MA
100 AM EST SUN DEC 08 2019

NOTE:  "FAIR" INDICATES FEW OR NO CLOUDS BELOW 12,000 FEET WITH NO 
SIGNIFICANT WEATHER AND/OR OBSTRUCTIONS TO VISIBILITY.

MAZALL-080700-
EASTERN MASSACHUSETTS
  
CITY           SKY/WX    TMP DP  RH WIND       PRES   REMARKS
BOSTON         FAIR      27  12  53 NW7       30.48R WCI  19          
6HR MIN TEMP:  26; 6HR MAX TEMP:  30;                                

BEVERLY        FAIR      17  11  77 W5        30.47R WCI  10          
LAWRENCE       FAIR      13   8  81 CALM      30.49R                  
BEDFORD        FAIR       9   5  84 CALM      30.47R                  
BLUE HILL        N/A     18  13  80 NW9       30.42R WCI   7          
NORWOOD        FAIR      15   9  76 CALM      30.48R                  
MARSHFIELD     NOT AVBL                                               
PLYMOUTH       FAIR      20  13  74 NW3       30.47R                  
TAUNTON        FAIR      15   9  76 CALM      30.48R                  
NEW BEDFORD    FAIR      17  12  80 CALM      30.47S                  
$$

MAZALL-080700-
CAPE COD AND THE ISLANDS
  
CITY           SKY/WX    TMP DP  RH WIND       PRES   REMARKS
FALMOUTH       NOT AVBL                                               
HYANNIS        NOT AVBL                                               
CHATHAM        MOCLDY    29  13  51 VRB3      30.46R                  
PROVINCETOWN   FAIR      29  17  61 NW14G21   30.46R WCI  18          
NANTUCKET      FAIR      30  17  58 NW13      30.46R WCI  20          
MARTHAS VNYRD  FAIR      27  12  53 N9        30.47R WCI  18          
$$
 
MAZALL-080700-
CENTRAL AND WESTERN MASSACHUSETTS
  
CITY           SKY/WX    TMP DP  RH WIND       PRES   REMARKS
WORCESTER      FAIR      16  10  77 W9        30.41S WCI   4          
6HR MIN TEMP:  13; 6HR MAX TEMP:  21;                                

FITCHBURG      FAIR       8   3  80 NW3       30.47R                  
ORANGE         FAIR       3  -3  76 CALM      30.47R                  
SPRINGFIELD    FAIR       5   2  84 CALM      30.47S                  
WESTFIELD      FAIR       9   4  80 CALM      30.48S                  
NORTH ADAMS    FAIR       3  -2  79 CALM      30.47S                  
PITTSFIELD     FAIR      13   7  77 W3        30.40S                  
$$
 
RIZALL-080700-
RHODE ISLAND
  
CITY           SKY/WX    TMP DP  RH WIND       PRES   REMARKS
PROVIDENCE     FAIR      23  13  65 NW5       30.49R WCI  17          
6HR MIN TEMP:  23; 6HR MAX TEMP:  29;                                

NEWPORT        FAIR      25  15  66 NW3       30.48R                  
BLOCK ISLAND   FAIR      27  17  66 N9        30.49R WCI  18          
SMITHFIELD     FAIR      18  12  77 W5        30.47R WCI  11          
WESTERLY       FAIR      25  12  58 CALM      30.50R                  
$$
 
CTZALL-080700-
CONNECTICUT
  
CITY           SKY/WX    TMP DP  RH WIND       PRES   REMARKS
BRADLEY INTL   FAIR      17   8  67 W6        30.49R WCI   9          
6HR MIN TEMP:  16; 6HR MAX TEMP:  29;                                

HARTFORD       FAIR      23  12  62 W3        30.50S                  
BRIDGEPORT     FAIR      25  15  66 W3        30.51F                  
DANBURY        FAIR      16  12  84 CALM      30.49F                  
GROTON         NOT AVBL                                               
NEW HAVEN      FAIR      23  12  62 NE3       30.51S                  
CHESTER        FAIR      21  12  68 CALM      30.48R                  
MERIDEN        FAIR      20  13  74 CALM      30.50S                  
WILLIMANTIC    FAIR      16  11  80 CALM      30.50R                  
OXFORD         FAIR      18  13  80 NW3       30.46F                  
$$

MEZ002-015-021-024-NHZ003-005-008-011-012-014-VTZ005-008-080700-
NORTHERN NEW ENGLAND
  
CITY           SKY/WX    TMP DP  RH WIND       PRES   REMARKS
PORTLAND ME    FAIR      15   6  67 CALM      30.45R                  
6HR MIN TEMP:  14; 6HR MAX TEMP:  26;                                

BANGOR ME      FAIR      10   6  84 W3        30.40R                  
CONCORD NH     FAIR       3  -1  83 CALM      30.46R                  
MANCHESTER NH  FAIR       9   5  84 CALM      30.45R                  
NASHUA NH      FAIR       5   3  91 CALM      30.47R                  
PORTSMOUTH NH  NOT AVBL                                               
JAFFREY NH     FAIR      -3  -8  79 CALM      30.40S                  
KEENE NH       FAIR       1  -2  87 CALM      30.47S                  
BURLINGTON VT  FAIR      10   6  84 CALM      30.45R                  
MT. WASHINGTON NOT AVBL                                               
$$

NYZ052-076-080700-
EASTERN NEW YORK
  
CITY           SKY/WX    TMP DP  RH WIND       PRES   REMARKS
ALBANY         FAIR       9   3  77 CALM      30.50S                  
6HR MIN TEMP:   8; 6HR MAX TEMP:  23;                                

NEW YORK CITY  FAIR      31  15  52 N5        30.50F WCI  26          
6HR MIN TEMP:  31; 6HR MAX TEMP:  36;                                

$$
 
ANZALL-080700-
MARINE OBSERVATIONS
  
STATION/POSITION TIME  TEMP    WIND        PRES    VSBY  WAVE
                       AIR SEA DIR/SP/G                  HT/PER
                 (UTC) (F)     (DEG/KT/KT) (MB)    (MI)  (FT/S)
BOSTON BUOY      0450   30 47  330/ 14/ 19 1030.8          3/ 3
BUZZARDS BAY     0500   29     330/ 11/ 12 1032.4R
NANTUCKET SOUND  0540   30 44                N/A
MASS BAY-STELLWA 0504   28 46  340/ 14/ 17 1029.6R  1 7/8  2/ 3
ISLE OF SHOALS   0500   25     300/ 15/ 17 1030.5R
S OF BLOCK IS    0530      52                N/A           3/ 4
$$

......................KEY.........................
  SKY/WX - SKY CONDITION/PRESENT WEATHER
  TMP    - TEMPERATURE IN FAHRENHEIT
  DWPT   - DEWPOINT IN FAHRENHEIT
  RH     - RELATIVE HUMIDITY IN PERCENT
  WIND   - DIRECTION AND SPEED IN MPH
  PRES   - MEAN SEA LEVEL PRESSURE IN INCHES OF HG
  WCI    - WIND CHILL INDEX
  VSB    - VISIBILITY IN MILES
  HX     - HEAT INDEX
  TC     - TEMPERATURE IN CELSIUS
  VRB    - VARIABLE WIND DIRECTION
  N/A    - NOT AVAILABLE
  
      

Other recent Regional Weather Roundups

Sun Dec 8, 4:10pm

Sun Dec 8, 4:01pm

Sun Dec 8, 3:10pm

Sun Dec 8, 3:01pm

Sun Dec 8, 2:10pm

Sun Dec 8, 2:01pm

Sun Dec 8, 1:10pm

Sun Dec 8, 1:00pm

Sun Dec 8, 12:10pm

Sun Dec 8, 12:01pm

Sun Dec 8, 11:10am

Sun Dec 8, 11:00am

Sun Dec 8, 10:10am

Sun Dec 8, 10:01am

Sun Dec 8, 9:10am

Sun Dec 8, 9:00am

Sun Dec 8, 8:10am

Sun Dec 8, 8:00am

Sun Dec 8, 7:10am

Sun Dec 8, 7:00am

Sun Dec 8, 6:10am

Sun Dec 8, 6:00am

Sun Dec 8, 5:10am

Sun Dec 8, 5:00am

Sun Dec 8, 4:10am

Sun Dec 8, 4:00am

Sun Dec 8, 3:10am

Sun Dec 8, 3:00am

Sun Dec 8, 2:10am

Sun Dec 8, 2:00am

Sun Dec 8, 1:10am

Sun Dec 8, 12:10am

Sun Dec 8, 12:01am

Sat Dec 7, 11:10pm

Sat Dec 7, 11:00pm

Sat Dec 7, 10:10pm

Sat Dec 7, 10:00pm

Sat Dec 7, 9:10pm

Sat Dec 7, 9:00pm

Sat Dec 7, 8:10pm

Sat Dec 7, 8:00pm

Sat Dec 7, 7:10pm

Sat Dec 7, 7:00pm

Sat Dec 7, 6:10pm

Sat Dec 7, 6:00pm

Sat Dec 7, 5:10pm

Sat Dec 7, 5:00pm

Sat Dec 7, 4:10pm

Sat Dec 7, 4:00pm

Sat Dec 7, 3:10pm

Sat Dec 7, 3:00pm

Sat Dec 7, 2:10pm

Sat Dec 7, 2:01pm

Sat Dec 7, 1:10pm

Sat Dec 7, 1:00pm

Sat Dec 7, 12:10pm

Sat Dec 7, 12:01pm

Sat Dec 7, 11:10am

Sat Dec 7, 11:00am

Sat Dec 7, 10:10am

Sat Dec 7, 10:01am

Sat Dec 7, 9:10am

Sat Dec 7, 9:00am

Sat Dec 7, 8:10am

Sat Dec 7, 8:00am

Sat Dec 7, 7:10am

Sat Dec 7, 7:00am

Sat Dec 7, 6:10am

Sat Dec 7, 6:00am

Sat Dec 7, 5:10am

Sat Dec 7, 5:00am

Sat Dec 7, 4:10am

Sat Dec 7, 4:00am

Sat Dec 7, 3:10am

Sat Dec 7, 3:00am

Sat Dec 7, 2:10am

Sat Dec 7, 2:01am

Sat Dec 7, 1:10am

Sat Dec 7, 1:00am

Sat Dec 7, 12:10am

Sat Dec 7, 12:01am

Fri Dec 6, 11:10pm

Fri Dec 6, 11:00pm

Fri Dec 6, 10:10pm

Fri Dec 6, 10:00pm

Fri Dec 6, 9:10pm

Fri Dec 6, 9:00pm

Fri Dec 6, 8:10pm

Fri Dec 6, 8:00pm

Fri Dec 6, 7:10pm

Fri Dec 6, 7:01pm

Fri Dec 6, 6:10pm

Fri Dec 6, 6:00pm

Fri Dec 6, 5:10pm

Fri Dec 6, 5:00pm

Fri Dec 6, 4:10pm

Fri Dec 6, 4:00pm

Fri Dec 6, 3:10pm

Fri Dec 6, 3:00pm

Fri Dec 6, 2:10pm

Fri Dec 6, 2:00pm

Fri Dec 6, 1:10pm

Fri Dec 6, 1:00pm

Fri Dec 6, 12:10pm

Fri Dec 6, 12:00pm

Fri Dec 6, 11:10am

Fri Dec 6, 11:00am

Fri Dec 6, 10:10am

Fri Dec 6, 10:00am

Fri Dec 6, 9:10am

Fri Dec 6, 9:00am

Fri Dec 6, 8:10am

Fri Dec 6, 8:00am

Fri Dec 6, 7:10am

Fri Dec 6, 7:00am

Fri Dec 6, 6:10am

Fri Dec 6, 6:01am

Fri Dec 6, 5:10am

Fri Dec 6, 5:00am

Fri Dec 6, 4:10am

Fri Dec 6, 4:00am

Fri Dec 6, 3:10am

Fri Dec 6, 3:00am

Fri Dec 6, 2:10am

Fri Dec 6, 2:00am

Fri Dec 6, 1:10am

Fri Dec 6, 1:00am

Fri Dec 6, 12:10am

Fri Dec 6, 12:00am

Thu Dec 5, 11:10pm

Thu Dec 5, 11:00pm

Thu Dec 5, 10:10pm

Thu Dec 5, 10:01pm

Thu Dec 5, 9:10pm

Thu Dec 5, 9:01pm

Thu Dec 5, 8:10pm

Thu Dec 5, 8:00pm

Thu Dec 5, 7:10pm

Thu Dec 5, 7:00pm

Thu Dec 5, 6:10pm

Thu Dec 5, 6:00pm

Thu Dec 5, 5:10pm

Thu Dec 5, 5:00pm

Meta data:

ID: 70eaaf1d-b790-45aa-b538-0db425ba16a3
Link: https://api.weather.gov/products/70eaaf1d-b790-45aa-b538-0db425ba16a3